Volver al catálogo

STARLINK-31033

ActivoComunicacionesVLEO
NORAD 58723·PAYLOAD·🇺🇸 United States

Lanzado Jan 3, 2024 desde Vandenberg Space Force Base

Loading…

Próximos Pases (próximas 24 horas)

TLE

ActualizadoSource: CelesTrak SupGP

Época: Sep 14, 2026, 22:08 UTC

1 58723C 24002U   26257.92270833  .00037546  00000+0  11095-2 0  2578
2 58723  53.1589  69.6214 0001107  83.9240  27.0279 15.34367128    19

Sigue STARLINK-31033 en tiempo real con AllMySat

Download on the App Store